Powrót do katalogu

COSMOS 1326

AktywnyMilitariaLEO
NORAD 12981·PAYLOAD·🇷🇺 Russia

Wystrzelony Nov 28, 1981 z Plesetsk Cosmodrome

Loading…

Następne Przeloty (najbliższe 24 godziny)

TLE

ŚwieżeSource: Space-Track

Epoka: Sep 14, 2026, 13:21 UTC

1 12981U 81116G   26257.55637140 -.00000005  00000-0  80727-4 0  9995
2 12981  73.9828 195.0603 0082132  20.3542 153.6819 12.30857161993161

Śledź COSMOS 1326 w czasie rzeczywistym z AllMySat

Download on the App Store